This is the latest recevied weather packets stored in our database for station/object K5FEP. If no packets are shown the sender has not sent any weather packets the latest 10 day(s).
| Time | Temp. | Humidity | Pressure | Rain* | Wind** | Luminosity | Snow |
|---|---|---|---|---|---|---|---|
| 1777762652 | 13.89° C | 53% | 1010.8 hPa | 0 mm | - | 56 W/m² | - |
| 1777762350 | 14.44° C | 52% | 1010.8 hPa | 0 mm | - | 57 W/m² | - |
| 1777762046 | 15° C | 45% | 1010.8 hPa | 0 mm | - | 54 W/m² | - |
| 1777761743 | 15.56° C | 45% | 1010.8 hPa | 0 mm | - | 60 W/m² | - |
| 1777761440 | 15.56° C | 44% | 1010.6 hPa | 0 mm | - | 85 W/m² | - |
| 1777761138 | 15.56° C | 44% | 1010.8 hPa | 0 mm | - | 168 W/m² | - |
| 1777760835 | 15.56° C | 42% | 1010.8 hPa | 0 mm | - | 155 W/m² | - |
| 1777760532 | 15.56° C | 46% | 1010.7 hPa | 0 mm | - | 167 W/m² | - |
| 1777760228 | 15° C | 40% | 1010.7 hPa | 0 mm | - | 115 W/m² | - |
| 1777759925 | 15° C | 42% | 1010.7 hPa | 0 mm | - | 125 W/m² | - |
| 1777759621 | 15° C | 45% | 1010.8 hPa | 0 mm | - | 155 W/m² | - |
| 1777759317 | 15° C | 45% | 1010.9 hPa | 0 mm | - | 169 W/m² | - |
| 1777759014 | 15.56° C | 42% | 1010.6 hPa | 0 mm | - | 181 W/m² | - |
| 1777758711 | 15.56° C | 45% | 1010.7 hPa | 0 mm | - | 181 W/m² | - |
| 1777758409 | 15.56° C | 46% | 1010.7 hPa | 0 mm | - | 165 W/m² | - |
| 1777758106 | 15.56° C | 41% | 1010.8 hPa | 0 mm | - | 280 W/m² | - |
| 1777757803 | 15.56° C | 40% | 1010.7 hPa | 0 mm | - | 173 W/m² | - |
| 1777757500 | 16.11° C | 40% | 1010.8 hPa | 0 mm | - | 251 W/m² | - |
| 1777757199 | 16.67° C | 39% | 1010.6 hPa | 0 mm | - | 354 W/m² | - |
| 1777756897 | 16.11° C | 40% | 1010.8 hPa | 0 mm | - | 470 W/m² | - |
| 1777756592 | 15.56° C | 40% | 1010.7 hPa | 0 mm | - | 475 W/m² | - |
| 1777756289 | 15.56° C | 41% | 1011 hPa | 0 mm | - | 242 W/m² | - |
| 1777755987 | 15.56° C | 44% | 1010.6 hPa | 0 mm | - | 266 W/m² | - |
| 1777755684 | 15.56° C | 42% | 1010.8 hPa | 0 mm | - | 175 W/m² | - |
| 1777755380 | 16.11° C | 39% | 1011 hPa | 0 mm | - | 258 W/m² | - |
* Rain latest hour (hover to see other rain measurements)
** Current wind speed in m/s (hover to see current wind gust speed)